Startseite
Über Mich
AHP4
Galerie
Sehschlangen
Tourenbuch
Bookmarks
Elektronik
Bewertung
Geschichten
[Tagesmessung] [Jahreswerte] [Information]

Messwerte vom 09.04.2022

Die letzten Messwerte von 23:58:45 Uhr:
KategorieMesswert
Temperatur [°C]2
Luftdruck [mBar]996
Sonneneinstrahlung0
Wind [km/h]2 aus Nordost
Niederschlag [l/m²]0
rel.Luftfeucht.96.6%
CO2 [ppm]440

Diagramme
Messwerte vom 09.04.2022
Tagesaggregation
KategorieMinimumMaximumSchnittSumme
Temperatur [°C]1134.9396
Luftdruck [mBar]980997988.8938
Sonneneinstrahlung248115.3875
Wind [km/h]26
rF [%]45.996.687.58
Niederschlag [l/m²]3.09
CO2 [ppm]401450413.3
Einordnung alsVegetationstag

Messungen an benachbarten Tagen: Zur Jahresaggregation 2022
Tabelle aller Messwerte
UhrzeitTemperatur [°C]Luftdruck [mBar]SonneWind [km/h]RichtungRegen [l/m²]rF [%]CO2 [ppm]
00:01:47 2 980 0 0 SW 0 96.5 405
00:04:50 2 980 0 0 SW 0 96.3 404
00:07:47 2 980 0 0 SW 0 96.3 407
00:10:46 2 980 0 0 S 0 96.6 407
00:13:47 2 980 0 1 SW 0 96.6 407
00:16:46 2 980 0 1 S 0 96.6 405
00:19:45 2 980 0 1 S 0 96.6 404
00:22:47 2 980 0 0 SW 0 96.6 404
00:25:48 2 980 0 1 SW 0 96.6 407
00:28:47 2 980 0 1 SW 0 96.6 407
00:31:47 2 980 0 0 SW 0 96.6 405
00:34:47 2 980 0 2 SO 0 96.6 408
00:37:46 2 980 0 1 SW 0 96.6 404
00:40:47 2 981 0 1 SO 0 96.6 407
00:43:47 2 980 0 0 W 0 96.6 405
00:46:46 2 980 0 1 SW 0 96.6 404
00:49:48 2 981 0 0 NW 0 96.6 406
00:52:46 2 981 0 2 W 0 96.6 407
00:55:48 2 981 0 1 SW 0 96.6 407
00:58:47 2 980 0 0 S 0 96.6 407
01:01:46 2 981 0 1 SW 0 96.6 405
01:04:45 2 981 0 2 W 0 96.6 407
01:07:44 2 981 0 1 W 0 96.6 407
01:10:47 2 981 0 2 W 0 96.6 404
01:13:45 2 980 0 1 S 0 96.6 404
01:16:48 1 981 0 0 SW 0 96.6 404
01:19:47 1 980 0 1 SO 0 96.6 407
01:22:45 2 980 0 1 S 0 96.6 407
01:25:47 2 981 0 8 SO 0 96.6 407
01:28:46 2 981 0 2 W 0 96.6 404
01:31:46 2 981 0 6 SW 0 96.6 407
01:34:46 2 980 0 2 W 0 96.6 404
01:37:45 2 981 0 2 W 0 96.6 404
01:40:45 2 981 0 4 W 0 96.6 404
01:43:45 2 981 0 5 S 0 96.6 407
01:46:47 2 982 0 5 SW 0 96.6 405
01:49:47 2 981 0 2 SW 0 96.6 404
01:52:46 2 982 0 4 SW 0 96.6 407
01:55:47 2 981 0 6 SW 0 96.6 408
01:58:45 2 981 0 4 S 0 96.6 407
02:01:48 2 981 0 2 W 0 96.6 405
02:04:48 2 982 0 2 SW 0 96.6 405
02:07:46 2 981 0 5 S 0 96.6 404
02:10:46 2 981 0 5 S 0 96.6 405
02:13:49 2 982 0 4 NW 0 96.6 408
02:16:45 2 981 0 1 W 0 96.6 407
02:19:49 2 982 0 3 SO 0 96.6 402
02:22:47 2 981 0 5 S 0 96.6 405
02:25:48 2 981 0 3 SW 0 96.6 405
02:28:47 2 982 0 4 W 0 96.6 407
02:31:47 2 982 0 2 SW 0 96.6 404
02:34:47 3 982 0 5 SW 0 96.6 405
02:37:51 3 981 0 7 NW 0 96.6 405
02:40:47 3 982 0 5 SW 0 96.6 407
02:43:46 3 982 0 3 W 0 96.6 404
02:46:47 3 982 0 5 W 0 96.6 404
02:49:47 2 981 0 2 SW 0 96.6 407
02:52:46 2 982 0 10 W 0 96.6 407
02:55:47 2 982 0 4 W 0 96.6 404
02:58:46 2 983 0 7 W 0 96.6 407
03:01:46 2 982 0 5 W 0 96.6 407
03:04:46 2 982 0 4 W 0 96.6 404
03:07:48 2 982 0 6 W 0 96.6 403
03:10:47 2 983 0 1 W 0 96.6 407
03:13:47 2 982 0 4 NW 0 96.6 407
03:16:47 2 982 0 7 SW 0 96.6 406
03:19:47 2 983 0 4 SW 0 96.6 404
03:22:46 2 982 0 3 S 0 96.6 407
03:25:46 2 983 0 3 SW 0 96.6 404
03:28:46 2 983 0 2 W 0 96.6 405
03:31:49 2 983 0 2 S 0 96.6 407
03:34:48 3 983 0 6 SW 0 96.6 404
03:37:44 3 983 0 3 W 0 96.6 407
03:40:47 3 983 0 8 W 0 96.6 405
03:43:49 3 983 0 4 SW 0 96.6 404
03:46:45 3 983 0 8 W 0 96.6 404
03:49:46 3 983 0 2 S 0 96.6 407
03:52:46 3 983 0 2 S 0 96.6 405
03:55:45 3 984 0 5 S 0 96.6 404
03:58:49 3 983 0 3 NW 0 96.6 405
04:01:46 3 983 0 4 W 0 96.6 407
04:04:45 3 984 0 3 W 0 96.6 404
04:07:47 3 984 0 10 SW 0 96.6 404
04:10:46 3 983 0 6 NO 0 96.6 407
04:13:47 3 984 0 6 SW 0 96.6 405
04:16:47 3 984 0 6 SW 0 96.6 404
04:19:46 3 984 0 5 S 0 96.6 404
04:22:45 3 984 0 5 SW 0 96.6 404
04:25:48 3 984 0 9 W 0 96.6 404
04:28:46 3 984 0 3 SW 0 96.6 404
04:31:47 3 984 0 6 W 0 96.6 405
04:34:46 3 984 0 4 W 0 96.6 407
04:37:48 3 984 0 7 SW 0 96.6 407
04:40:46 3 984 0 7 S 0 96.6 407
04:43:48 3 984 0 2 S 0 96.6 404
04:46:47 3 984 0 5 S 0 96.6 401
04:49:46 3 984 0 4 NW 0 96.6 407
04:52:49 3 984 0 6 W 0 96.6 407
04:55:47 3 984 0 9 W 0 96.6 407
04:58:47 3 984 0 8 SO 0 96.6 407
05:01:47 3 984 0 8 SW 0 96.6 404
05:04:46 3 984 0 3 W 0 96.6 404
05:07:47 3 984 0 8 NW 0 96.6 404
05:10:45 3 984 0 2 W 0 96.5 404
05:13:45 3 984 0 6 SW 0 96.3 404
05:16:46 3 984 0 5 S 0 96.2 404
05:19:47 3 984 0 7 SW 0 96.4 405
05:22:48 3 984 0 12 W 0 96.5 407
05:25:47 3 984 0 5 NO 0 96.5 404
05:28:47 3 984 0 14 W 0 96.6 405
05:31:46 3 984 0 14 SW 0 96.6 404
05:34:47 3 985 0 13 SW 0 96.6 404
05:37:46 3 984 0 5 W 0 96.6 407
05:40:48 3 985 0 3 W 0 96.6 404
05:43:48 3 984 0 2 SW 0 96.6 407
05:46:49 3 985 0 7 SW 0 96.6 405
05:49:47 3 985 0 8 N 0 96.6 404
05:52:46 3 984 0 3 S 0 96.6 407
05:55:45 3 985 0 4 S 0 96.6 407
05:58:46 3 984 0 3 NW 0 96.6 404
06:01:47 3 985 0 6 NW 0 96.6 407
06:04:48 3 985 0 4 NW 0 96.6 404
06:07:47 3 985 0 9 W 0 96.6 408
06:10:49 3 985 0 2 W 0 96.6 408
06:13:49 3 985 4 4 NO 0 96.6 404
06:16:47 3 985 7 6 SW 0 96.6 407
06:19:47 3 985 11 3 W 0 96.5 405
06:22:50 3 985 14 3 SW 0 96.5 405
06:25:47 3 985 12 3 SW 0 96.5 407
06:28:46 3 985 27 8 S 0 96.6 404
06:31:48 3 987 32 2 W 0 96.6 406
06:34:46 3 986 37 4 W 0 96.6 404
06:37:45 3 985 46 4 W 0 96.6 404
06:40:48 3 986 50 5 NW 0 96.5 404
06:43:47 3 986 72 3 SO 0 96.3 406
06:46:46 3 986 80 12 W 0 96.1 404
06:49:46 3 987 75 11 W 0 95.8 407
06:52:46 3 987 83 5 SO 0 95.7 404
06:55:49 3 986 94 7 NW 0 95.7 404
06:58:46 3 987 94 4 NW 0 95.6 407
07:01:47 3 987 101 2 O 0 95.7 405
07:04:46 3 987 95 9 SW 0 95.6 404
07:07:49 3 987 107 7 SW 0 95.5 405
07:10:48 3 987 115 10 W 0 95.5 405
07:13:46 3 987 131 5 SW 0 95.5 404
07:16:48 3 987 139 3 SW 0 95.3 404
07:19:47 4 987 140 7 NW 0 95.2 407
07:22:49 4 987 163 11 SO 0 94.9 407
07:25:46 4 987 167 9 W 0 94.6 404
07:28:47 4 987 164 3 NW 0 94.3 404
07:31:47 4 987 168 3 S 0 94.3 407
07:34:48 4 987 169 2 NW 0 94.2 406
07:37:47 4 987 180 7 SW 0 94 401
07:40:45 4 987 174 1 0 93.6 407
07:43:52 4 987 168 6 NW 0 93.3 405
07:46:47 4 987 172 13 W 0 93 407
07:49:48 4 987 187 9 W 0 93.4 404
07:52:49 4 987 187 7 SW 0 93.5 405
07:55:47 4 987 190 13 W 0 93.6 404
07:58:49 4 987 190 4 SO 0 92.9 405
08:01:51 4 987 189 7 NW 0 92.6 404
08:04:48 4 987 187 6 W 0 92.4 407
08:07:48 4 987 192 8 SW 0 92.6 404
08:10:49 4 987 196 4 SW 0 92.6 404
08:13:51 4 987 200 10 NW 0 92.6 408
08:16:48 4 987 196 7 SW 0 92.7 404
08:19:48 4 987 193 14 SW 0 92.1 404
08:22:48 4 987 196 11 NW 0 91.7 407
08:25:47 4 988 198 11 N 0 91.4 404
08:28:49 4 987 195 11 S 0 91.4 404
08:31:52 4 988 202 13 NW 0 90.9 407
08:34:45 4 987 202 10 S 0 90.6 407
08:37:48 4 988 205 10 N 0 90.7 407
08:40:46 4 987 198 5 S 0 90.6 404
08:43:46 4 987 194 14 W 0 89.9 404
08:46:48 5 988 204 24 W 0 89.5 404
08:49:49 5 988 206 7 SW 0 89.4 407
08:52:48 5 987 195 6 SW 0 88.8 401
08:55:48 5 988 196 17 SO 0 88.5 407
08:58:50 5 988 197 19 SW 0 88.3 407
09:01:49 5 987 197 11 W 0 88.8 404
09:04:50 5 988 193 6 W 0 88.9 405
09:07:48 5 988 199 13 W 0 88.2 407
09:10:50 5 988 212 8 NW 0 88 407
09:13:47 5 988 213 9 SW 0 88.1 404
09:16:47 6 988 209 10 W 0 87.4 407
09:19:49 6 988 214 5 SW 0 85.7 404
09:22:48 6 988 209 5 SO 0 85.2 406
09:25:47 6 988 216 9 NW 0 84.3 407
09:28:47 6 988 215 4 W 0 84.2 405
09:31:50 6 988 215 5 SO 0 83.4 404
09:34:51 6 988 217 9 SW 0 81.9 405
09:37:47 6 989 207 8 SW 0 81 404
09:40:47 6 988 205 5 W 0 81.1 407
09:43:50 6 989 203 10 SW 0 80.5 407
09:46:49 6 989 207 3 W 0 80 405
09:49:47 6 988 210 14 SO 0 81.1 407
09:52:46 6 988 209 4 W 0 81.2 407
09:55:47 6 988 215 17 S 0 81 407
09:58:48 6 988 217 11 NW 0 78.9 407
10:01:47 7 989 212 3 N 0 76.9 407
10:04:47 7 989 219 24 W 0 76.6 407
10:07:48 7 988 219 9 SW 0 76.1 407
10:10:49 7 988 216 16 NW 0 76.2 405
10:13:48 7 988 212 2 NW 0 76.6 404
10:16:50 7 989 209 9 SW 0 76.3 407
10:19:51 6 989 212 5 SW 0 75.6 402
10:22:47 6 989 217 6 SW 0 76.2 404
10:25:47 6 988 217 6 SW 0 76 404
10:28:48 7 989 222 17 SW 0 75.4 404
10:31:48 7 989 209 13 S 0 74.4 407
10:34:47 7 989 217 7 W 0 72.4 404
10:37:51 7 989 223 3 SW 0 72.2 407
10:40:47 7 989 220 6 W 0 72.5 407
10:43:49 7 989 220 19 SW 0 72.4 407
10:46:48 7 989 219 6 W 0 71.7 404
10:49:47 7 989 219 5 SW 0 71.8 407
10:52:46 8 989 211 9 W 0 71.3 404
10:55:48 7 989 220 8 SW 0 71.3 407
10:58:47 7 990 222 8 SW 0 71 404
11:01:46 7 989 221 17 SW 0 71.5 405
11:04:49 8 990 218 12 SW 0 69.7 407
11:07:50 8 990 214 10 SW 0 68.6 405
11:10:47 8 990 210 9 SW 0 69.7 405
11:13:46 8 989 215 10 0 70.2 404
11:16:48 8 989 216 14 SO 0 70.8 408
11:19:46 8 990 221 12 N 0 69.1 405
11:22:47 8 990 226 15 W 0 69.9 404
11:25:50 9 990 214 22 W 0 69.7 404
11:28:48 9 989 218 7 S 0 67.1 404
11:31:50 9 990 222 22 SO 0 67.8 407
11:34:48 9 989 220 4 S 0 68.2 407
11:37:48 9 990 221 7 S 0 66.4 405
11:40:47 9 990 221 8 W 0 66 405
11:43:48 9 989 226 15 SW 0 65.2 407
11:46:49 9 990 225 12 SW 0 60.7 401
11:49:46 9 990 224 17 NW 0 60.6 404
11:52:47 9 989 224 12 SW 0 61.7 404
11:55:48 9 989 225 15 W 0 62.2 408
11:58:49 9 990 207 4 NW 0 63 407
12:01:48 9 989 225 8 SW 0 62.2 404
12:04:50 8 989 225 12 SW 0 65.8 407
12:07:51 9 990 220 15 W 0 67.3 407
12:10:47 9 990 226 10 S 0 67.3 407
12:13:49 9 990 227 23 NW 0 64.8 404
12:16:47 9 990 223 8 N 0 62.1 407
12:19:46 9 990 220 5 SW 0 61.2 404
12:22:46 9 990 219 5 O 0 63 406
12:25:50 10 990 217 17 W 0 62.3 404
12:28:51 11 990 226 12 SW 0 57.1 405
12:31:49 11 989 229 13 W 0 57.1 407
12:34:51 11 990 227 8 W 0 55.2 407
12:37:48 11 990 225 11 SW 0 55.1 407
12:40:49 11 990 227 12 N 0 55.9 404
12:43:48 12 990 228 8 NW 0 56.6 404
12:46:48 12 990 226 13 SW 0 54.7 407
12:49:46 12 990 221 1 S 0 52.9 404
12:52:49 11 990 221 9 SW 0 53.8 404
12:55:47 10 991 224 11 NO 0 57.9 404
12:58:52 9 990 218 11 NW 0 61.1 407
13:01:46 9 990 215 2 O 0 64.7 407
13:04:30 9 990 216 5 S 0 45.9 407
13:07:48 10 990 218 12 NW 0 61.1 405
13:10:47 10 990 220 11 SW 0 60.4 406
13:13:47 11 990 230 13 NW 0 57.8 403
13:16:48 12 990 230 6 SW 0 56.7 404
13:19:49 13 990 230 10 SO 0 54.2 407
13:22:47 13 989 229 13 W 0 52.6 404
13:25:50 13 990 231 11 NW 0 53.5 405
13:28:48 12 989 224 7 SW 0 51.9 404
13:31:46 12 990 228 26 W 0 51 407
13:34:47 12 990 223 11 SW 0 52.6 407
13:37:49 11 990 221 10 NW 0 54.3 404
13:40:49 11 990 226 3 N 0 55.8 404
13:43:49 11 990 234 3 S 0 56.7 407
13:46:48 11 990 226 7 S 0 53.1 404
13:49:48 11 990 227 1 NO 0 55.1 407
13:52:50 10 990 231 10 SW 0 58 413
13:55:47 10 991 231 3 O 0 58.6 416
13:58:47 11 991 236 4 SO 0 59.4 407
14:01:48 11 990 237 9 S 0 59.5 407
14:04:48 12 990 237 6 NW 0 58.6 416
14:07:30 10 990 214 6 W 0 51 416
14:10:47 12 991 155 9 S 0 54.4 419
14:13:46 9 991 132 19 W 0 61.5 419
14:16:47 10 991 141 6 NW 0 68.5 422
14:19:47 10 991 206 6 O 0.2575 75.5 413
14:22:30 9 991 208 9 W 0 47.4 406
14:25:47 9 991 227 3 SO 0 82.5 413
14:28:45 8 991 232 1 S 0.2575 92.2 415
14:31:45 8 991 216 7 W 0 94.6 416
14:34:46 5 991 238 6 S 0 95.3 413
14:37:48 6 991 241 9 SW 0 95.6 414
14:40:46 7 991 241 2 N 0 96.2 416
14:43:47 8 991 243 2 NO 0 94.9 416
14:46:47 8 991 243 6 SO 0 90.5 424
14:49:48 9 991 243 6 SW 0 89.5 427
14:52:48 10 991 240 18 SW 0 83.9 418
14:55:46 10 991 218 6 W 0 82.8 410
14:58:47 9 991 215 2 SW 0 81.5 410
15:01:47 8 991 206 1 SW 0 83.1 413
15:04:46 8 991 176 11 W 0 84 416
15:07:49 7 991 141 6 NW 0 85.2 410
15:10:48 7 991 114 5 NW 0 85.8 413
15:13:49 6 991 118 4 NW 0.2575 87.8 411
15:16:46 6 991 119 5 N 0.515 88.9 407
15:19:45 4 991 174 6 W 0.2575 88.4 412
15:22:46 4 991 187 1 S 0.2575 90.8 410
15:25:48 3 991 199 1 S 0 94 410
15:28:46 3 991 221 2 SW 0.2575 94.4 407
15:31:49 4 991 230 3 NW 0.2575 96.4 413
15:34:48 4 991 236 9 W 0 96.6 419
15:37:46 5 991 241 7 S 0.2575 96.6 413
15:40:48 5 991 243 8 S 0.2575 96.6 407
15:43:47 6 991 244 13 W 0 96.4 405
15:46:49 7 991 245 8 NW 0 95.9 407
15:49:48 7 991 246 4 W 0 94.9 408
15:52:48 8 992 246 7 SW 0 93.6 406
15:55:46 8 991 246 11 S 0 91.6 407
15:58:47 8 991 246 10 W 0 87.9 407
16:01:47 8 991 245 12 W 0 83.9 407
16:04:47 8 991 246 7 S 0 83.8 405
16:07:49 8 991 245 8 S 0 84.7 406
16:10:47 8 991 246 11 NO 0 84.4 408
16:13:51 9 991 245 21 W 0 82.7 404
16:16:47 9 991 246 10 SO 0 82.4 407
16:19:50 9 991 246 11 W 0 82.9 406
16:22:47 9 992 245 19 W 0 78.5 406
16:25:47 9 991 233 12 W 0 77.8 404
16:28:46 9 991 221 5 N 0 78.9 407
16:31:50 8 991 231 12 SW 0 78.7 405
16:34:48 8 991 222 5 SO 0 79.9 405
16:37:47 8 991 216 10 S 0 81.7 405
16:40:49 8 992 207 8 W 0 81.4 407
16:43:47 7 992 188 10 N 0 81.2 407
16:46:32 7 992 179 10 SW 0 71.7 404
16:49:49 6 991 218 15 S 0 86.2 407
16:52:49 6 991 247 6 S 0.2575 88.6 404
16:55:48 6 992 248 2 SO 0 92.9 407
16:58:46 7 992 247 2 W 0 93.4 413
17:01:50 7 992 247 8 S 0 92.1 413
17:04:48 7 991 247 3 SW 0 90.5 419
17:07:47 7 992 246 5 W 0 90.3 413
17:10:48 7 992 246 7 S 0 87.8 411
17:13:48 7 992 244 6 SO 0 87.9 407
17:16:48 7 992 244 5 SO 0 88.1 413
17:19:47 7 992 244 13 NW 0 87.7 413
17:22:46 7 991 244 8 S 0 88 402
17:25:47 7 992 241 2 NO 0 88.7 404
17:28:47 7 992 238 14 W 0 85.7 407
17:31:48 7 992 237 3 NW 0 85.9 416
17:34:46 7 992 232 14 N 0 87.3 419
17:37:49 7 992 233 2 SW 0 86.9 416
17:40:47 7 992 236 3 S 0 86.8 410
17:43:46 7 993 236 7 S 0 86 413
17:46:48 7 992 237 11 W 0 85.5 422
17:49:48 7 993 239 9 S 0 85.6 419
17:52:49 7 992 244 1 SW 0 85.6 429
17:55:48 7 993 242 6 SW 0 85.9 425
17:58:47 7 993 236 5 S 0 84.6 428
18:01:51 7 992 224 10 SW 0 84.5 426
18:04:47 7 993 223 10 W 0 84.4 427
18:07:48 7 992 239 1 S 0 85.8 421
18:10:48 7 993 244 3 S 0 86.9 414
18:13:49 7 993 229 2 W 0 87.4 419
18:16:47 7 993 214 6 SW 0 84.5 424
18:19:47 7 994 190 6 S 0 84.5 425
18:22:47 7 993 193 5 SO 0 84.8 428
18:25:48 6 993 206 5 S 0 86.5 427
18:28:48 6 993 197 5 W 0 87.4 433
18:31:45 6 993 180 9 S 0 87.1 436
18:34:48 6 993 166 10 SW 0 85.5 436
18:37:47 6 993 196 9 W 0 85.7 433
18:40:48 6 994 209 2 NW 0 87 439
18:43:49 5 993 208 8 SO 0 88 434
18:46:50 5 994 204 9 SW 0 88.7 413
18:49:48 5 994 199 2 SW 0 89 410
18:52:48 5 994 191 5 W 0 89.4 416
18:55:47 5 994 179 3 N 0 89.6 422
18:58:51 5 993 160 6 O 0 90.2 422
19:01:45 5 994 146 6 W 0 90.4 422
19:04:46 5 994 148 5 SW 0 89.7 416
19:07:49 5 995 181 3 NW 0 89.9 421
19:10:49 5 994 196 3 S 0 89.6 424
19:13:47 5 994 205 0 SW 0 89.4 424
19:16:47 5 994 198 2 W 0 89.4 422
19:19:47 5 994 204 1 S 0 89.7 424
19:22:47 5 994 208 5 S 0 89.9 425
19:25:48 5 994 219 6 SW 0 89.9 424
19:28:47 5 995 201 3 N 0 89.3 419
19:31:47 5 994 195 3 SO 0 89.3 422
19:34:46 5 994 188 3 N 0 89.1 419
19:37:48 4 995 180 2 SW 0 89.4 421
19:40:47 4 994 169 1 NO 0 89.7 418
19:43:48 4 995 157 2 NW 0 89.9 425
19:46:48 4 994 148 7 NW 0 90.1 422
19:49:49 4 994 143 3 S 0 90.2 416
19:52:45 4 994 133 6 O 0 90.6 425
19:55:47 4 994 106 2 S 0 91.2 428
19:58:46 4 995 92 3 S 0 92 424
20:01:49 4 995 77 3 NW 0 93.2 427
20:04:49 4 995 55 2 SW 0 92.9 425
20:07:50 4 994 50 7 S 0 92.7 424
20:10:48 4 995 58 15 W 0 93.1 419
20:13:46 4 994 49 1 W 0 93.4 422
20:16:47 4 995 38 1 O 0 93 430
20:19:45 4 994 26 4 O 0 93 436
20:22:46 3 995 17 1 NW 0 93.4 437
20:25:49 3 995 10 1 SO 0 94.3 433
20:28:47 3 995 5 2 SW 0 94.9 431
20:31:46 3 995 3 4 SW 0 95.4 429
20:34:49 3 995 0 2 S 0 95.7 431
20:37:46 3 995 0 6 S 0 95.7 434
20:40:47 3 994 0 2 SW 0 95.9 433
20:43:47 3 995 0 8 SW 0 96.1 438
20:46:46 3 995 0 2 NO 0 96.2 436
20:49:48 3 995 0 0 NW 0 96.5 436
20:52:47 3 995 0 2 S 0 96.2 434
20:55:45 3 995 0 1 S 0 96.3 430
20:58:47 3 995 0 2 W 0 96.2 430
21:01:51 3 995 0 7 SW 0 96 428
21:04:46 3 995 0 1 O 0 95.9 436
21:07:46 3 995 0 2 NO 0 95.6 427
21:10:46 3 995 0 1 O 0 95.7 425
21:13:47 3 995 0 4 SO 0 96.1 425
21:16:49 3 995 0 3 SW 0 96.1 434
21:19:48 3 995 0 1 S 0 96.1 440
21:22:48 3 995 0 1 NW 0 96.5 445
21:25:47 2 995 0 2 SW 0 96.5 440
21:28:50 2 995 0 5 S 0 96.6 437
21:31:46 2 995 0 1 SW 0 96.6 440
21:34:46 2 995 0 2 O 0 96.6 442
21:37:44 2 995 0 5 O 0 96.6 442
21:40:48 2 995 0 3 SW 0 96.6 442
21:43:46 2 995 0 6 SO 0 96.6 439
21:46:46 2 995 0 2 NO 0 96.6 439
21:49:48 2 995 0 13 SO 0 96.6 442
21:52:46 2 995 0 9 0 96.6 440
21:55:46 2 995 0 4 S 0 96.6 436
21:58:45 3 995 0 9 S 0 96.6 436
22:01:47 3 995 0 3 SW 0 96.6 436
22:04:46 3 995 0 2 S 0 96.6 439
22:07:47 3 995 0 2 SO 0 96.6 436
22:10:47 3 995 0 3 S 0 96.6 429
22:13:47 3 995 0 8 W 0 96.6 431
22:16:46 3 995 0 6 S 0 96.6 436
22:19:47 3 995 0 2 O 0 96.6 448
22:22:49 2 995 0 5 SW 0 96.6 437
22:25:47 2 995 0 3 SO 0 96.6 439
22:28:48 2 995 0 3 NW 0 96.6 450
22:31:48 2 995 0 3 S 0 96.6 448
22:34:48 2 996 0 2 SO 0 96.6 445
22:37:49 2 995 0 4 SO 0 96.6 436
22:40:47 2 995 0 1 NW 0 96.6 439
22:43:45 2 995 0 3 W 0 96.6 439
22:46:47 2 995 0 9 W 0 96.6 439
22:49:45 2 995 0 1 O 0 96.6 442
22:52:47 2 995 0 4 O 0 96.6 446
22:55:46 2 996 0 4 W 0 96.6 446
22:58:46 2 996 0 4 SW 0 96.6 445
23:01:48 2 995 0 2 SW 0 96.6 439
23:04:46 2 995 0 12 W 0 96.6 434
23:07:47 2 995 0 4 S 0 96.6 438
23:10:47 2 995 0 4 NW 0 96.6 440
23:13:48 2 996 0 10 SO 0 96.6 443
23:16:47 2 996 0 3 SW 0 96.6 440
23:19:48 2 995 0 0 NW 0 96.6 446
23:22:46 2 996 0 4 SO 0 96.6 445
23:25:46 2 996 0 3 SW 0 96.6 442
23:28:47 2 995 0 3 W 0 96.6 440
23:31:46 2 995 0 3 S 0 96.6 436
23:34:44 2 996 0 4 S 0 96.6 439
23:37:47 2 995 0 3 NO 0 96.6 436
23:40:45 2 996 0 1 W 0 96.6 443
23:43:47 2 996 0 1 S 0 96.6 446
23:46:48 2 996 0 1 NO 0 96.6 450
23:49:49 2 996 0 0 SO 0 96.6 446
23:52:45 2 996 0 0 SW 0 96.6 442
23:55:44 2 997 0 0 N 0 96.6 443
23:58:45 2 996 0 2 NO 0 96.6 440

Letzte Änderung : 22-Jul-2022
Copyright Jens Köhler, Wolfsburg, Obere Dorfstraße 10d